Flag for Germany Weather past 2 weeks in Menden (Sauerland), North Rhine-Westphalia, Germany

Now
45 °F

Sprinkles. Partly sunny.


Feels Like: 38 °F
Forecast: 38 / 60 °F
Wind: 14 mph from North

Location: Dortmund / Wickede


UV Index: 0 (Low)

Visibility: N/A


Pressure: 29.95 "Hg

Humidity: 71%

Dew point: 36 °F

Location of Menden (Sauerland)Location

Historic Weather in Menden (Sauerland)

°F

Menden (Sauerland) temperature yesterday

Maximum temperature yesterday: 61 °F (at 3:20 PM)
Minimum temperature yesterday: 41 °F (at 5:50 AM)
Average temperature yesterday: 54 °F

Past Weeks' High & Low Weather Summary

 TemperatureHumidityPressure
High72 °F (Apr 3, 12:50 PM)94% (Apr 5, 5:20 AM)30.45 "Hg (Apr 5, 5:20 AM)
Low30 °F (Apr 16, 5:20 AM)29% (Apr 17, 3:50 PM)29.62 "Hg (Apr 3, 12:20 PM)
Average52 °F66%30.05 "Hg
* Reported Apr 3 12:20 PM — Apr 18 12:50 PM, Menden (Sauerland), Weather by CustomWeather, © 2014

Note: Actual official high and low records may vary slightly from our data, if they occured in-between our weather recording intervals... More about our weather records

Advertising

Historic Weather Conditions — Data for Previous 24 hours

 ConditionsComfort  
Time TempWeatherWind HumidityBarometerVisibility
12:50 PM
Apr 18
45 °FSprinkles. Partly sunny.14 mph71%29.95 "HgN/A
12:20 PM46 °FPartly sunny.16 mph66%29.95 "HgN/A
11:50 AM46 °FScattered clouds.10 mph66%29.92 "HgN/A
11:20 AM46 °FCool.8 mph66%29.95 "HgN/A
10:50 AM45 °FPartly sunny.10 mph76%29.92 "HgN/A
10:20 AM45 °FPartly sunny.8 mph76%29.92 "HgN/A
9:50 AM45 °FPartly sunny.9 mph76%29.92 "HgN/A
9:20 AM43 °FPartly sunny.8 mph81%29.92 "HgN/A
8:50 AM43 °FPartly sunny.8 mph87%29.92 "HgN/A
8:20 AM43 °FScattered clouds.7 mph81%29.92 "HgN/A
7:50 AM41 °FScattered clouds.8 mph87%29.92 "HgN/A
7:20 AM41 °FPassing clouds.6 mph87%29.89 "HgN/A
6:50 AM41 °FPassing clouds.8 mph87%29.89 "HgN/A
6:20 AM41 °FPassing clouds.7 mph87%29.89 "HgN/A
5:50 AM43 °FPassing clouds.9 mph87%29.89 "HgN/A
5:20 AM43 °FPassing clouds.9 mph87%29.89 "HgN/A
9:50 PM
Apr 17
55 °FSprinkles. Passing clouds.15 mph41%29.92 "HgN/A
9:20 PM57 °FSunny.9 mph33%29.92 "Hg10 mi
8:50 PM55 °FSunny.7 mph41%29.92 "Hg10 mi
8:20 PM57 °FSunny.9 mph36%29.95 "Hg10 mi
7:50 PM59 °FSunny.10 mph34%29.95 "Hg10 mi
6:50 PM59 °FSunny.10 mph39%29.95 "Hg10 mi
6:20 PM59 °FSunny.12 mph34%29.98 "Hg10 mi
5:50 PM59 °FPassing clouds.13 mph36%29.98 "HgN/A
5:20 PM61 °FPassing clouds.12 mph29%29.98 "HgN/A
4:50 PM61 °FPassing clouds.13 mph29%30.01 "HgN/A
4:20 PM61 °FPassing clouds.13 mph29%30.04 "HgN/A
3:50 PM61 °FPassing clouds.14 mph29%30.04 "HgN/A
3:20 PM61 °FPassing clouds.12 mph31%30.07 "HgN/A
2:50 PM59 °FPassing clouds.12 mph31%30.09 "HgN/A
2:20 PM59 °FPassing clouds.10 mph34%30.09 "HgN/A
1:50 PM59 °FPassing clouds.9 mph31%30.12 "HgN/A
1:20 PM57 °FPassing clouds.9 mph36%30.12 "HgN/A
Weather by CustomWeather, © 2014

See weather overview